• Join FlightAware (Why Join?)
  • Login
  • US Flag GB Flag 
19:45 EST


 

Airport Tracker/Info


-or-


 

Live Flight TrackerFlight Track Log ✈ SWA253 ✈ 05-Apr-2013 ✈ KOAK - KBUR

Flight Track Log - Related Links

Times and Time Zones

All times are in EDT time to prevent confusion due to time zone crossing. See the SWA253 flight status page for this flight to view local times or setup timezone preferences in your user account.

Time Position Orientation Groundspeed Altitude Reporting Facility
EDT Latitude Longitude Course Direction KTS MPH feet Rate Location/Type
22:46 37.7167 -122.2333 308° West 147 169 1,000  Level Northern Cal TRACON
22:47 37.7417 -122.2736 308° West 181 208 2,900 3,420 Climbing Oakland Center
22:48 37.7722 -122.3317 304° West 212 244 7,100 3,420 Climbing Oakland Center
22:49 37.7178 -122.3778 214° Southwest 259 298 9,900 3,000 Climbing Oakland Center
22:50 37.6397 -122.3933 189° South 281 323 13,200 3,180 Climbing Oakland Center
22:51 37.5536 -122.3353 152° Southeast 367 422 16,400 2,700 Climbing Oakland Center
22:52 37.4753 -122.2469 138° Southeast 380 437 18,800 1,980 Climbing Oakland Center
22:53 37.3897 -122.1564 140° Southeast 399 459 20,500 2,220 Climbing Oakland Center
22:54 37.2986 -122.0628 141° Southeast 420 483 23,400 2,760 Climbing Oakland Center
22:55 37.1861 -121.9478 141° Southeast 435 501 26,200 2,340 Climbing Oakland Center
22:56 37.0872 -121.8436 140° Southeast 460 529 28,200 2,160 Climbing Oakland Center
22:57 36.9819 -121.7433 143° Southeast 475 547 30,700 1,320 Climbing Oakland Center
22:58 36.8808 -121.6392 140° Southeast 471 542 30,900 60 Climbing Oakland Center
22:59 36.7750 -121.5308 141° Southeast 470 541 30,900  Level Oakland Center
23:00 36.6736 -121.4289 141° Southeast 471 542 30,900  Level Oakland Center
23:01 36.5694 -121.3242 141° Southeast 482 555 30,900  Level Oakland Center
23:02 36.4647 -121.2167 140° Southeast 490 564 30,900  Level Oakland Center
23:03 36.3575 -121.1106 141° Southeast 493 567 30,900  Level Oakland Center
23:04 36.2514 -121.0050 141° Southeast 492 566 30,900  Level Oakland Center
23:05 36.1453 -120.8986 141° Southeast 490 564 30,900  Level Oakland Center
23:06 36.0394 -120.7908 141° Southeast 493 567 30,900  Level Oakland Center
23:07 35.9333 -120.6856 141° Southeast 491 565 30,900  Level Oakland Center
23:08 35.8258 -120.5800 141° Southeast 495 570 30,900  Level Oakland Center
23:09 35.7189 -120.4742 141° Southeast 494 568 30,900  Level Oakland Center
23:10 35.5881 -120.3467 142° Southeast 497 572 30,900  Level Oakland Center
23:11 35.5003 -120.2608 141° Southeast 495 570 30,900  Level Oakland Center
23:12 35.3903 -120.1508 141° Southeast 499 574 30,900  Level Oakland Center
23:13 35.2800 -120.0450 142° Southeast 497 572 30,900 -840 Level Oakland Center
23:14 35.1514 -119.9214 142° Southeast 490 564 29,200 -2,100 Descending Oakland Center
23:15 35.0539 -119.8139 138° Southeast 474 545 26,700 -2,400 Descending Oakland Center
23:16 34.9681 -119.6967 132° Southeast 464 534 24,300 -1,860 Descending Oakland Center
23:17 34.8864 -119.5847 132° Southeast 448 516 22,900 -2,280 Descending Oakland Center
23:18 34.8033 -119.4739 132° Southeast 443 510 19,700 -2,760 Descending Oakland Center
23:20 34.7058 -119.3417 132° Southeast 438 504 16,800 -2,220 Descending Los Angeles Center
23:21 34.6292 -119.2389 132° Southeast 416 479 14,800 -1,860 Descending Los Angeles Center
23:22 34.5569 -119.1469 134° Southeast 391 450 13,000 -1,860 Descending Los Angeles Center
23:23 34.4744 -119.0358 132° Southeast 363 418 11,000 -1,500 Descending Los Angeles Center
23:24 34.4147 -118.9539 131° Southeast 324 373 10,000 -1,500 Descending Los Angeles Center
23:25 34.3636 -118.8669 125° Southeast 317 365 8,000 -1,860 Descending Los Angeles Center
23:26 34.3108 -118.7881 129° Southeast 300 345 6,300 -1,500 Descending Los Angeles Center
23:27 34.2636 -118.7117 127° Southeast 288 331 5,000 -1,020 Descending Los Angeles Center
23:28 34.2181 -118.6392 127° Southeast 275 316 4,200 -600 Descending Los Angeles Center
23:29 34.2000 -118.5500 104° East 199 229 3,800 -660 Descending Southern California TRACON
23:30 34.2000 -118.5000 90° East 163 188 2,900 -900 Descending Southern California TRACON
23:31 34.2000 -118.4500 90° East 151 174 2,100 -840 Descending Southern California TRACON
23:32 34.2000 -118.4000 90° East 127 146 1,300 -480 Descending Southern California TRACON
23:33 34.1983 -118.3517 92° East 142 163 1,000 -240 Descending Los Angeles Center
23:35 34.2000 -118.3500 140° Southeast  Level FlightAware Approximate